Flag Weather past 2 weeks in Kuwait City, Kuwait

Now
68 °F

Passing clouds.


Feels Like: 68 °F
Forecast: 64 / 74 °F
Wind: 12 mph from North

Location: Kuwait International Airport

Current Time: Nov 23, 2014 at 5:44:29 AM

Latest Report: Nov 23, 2014 at 5:00 AM


Visibility: N/A

Pressure: 29.92 "Hg

Humidity: 64%

Dew point: 55 °F

Location of Kuwait CityLocation

Historic Weather in Kuwait City — Graph

°F

Kuwait City temperature yesterday

Maximum temperature yesterday: 88 °F (at 3:00 PM)
Minimum temperature yesterday: 63 °F (at 1:30 AM)
Average temperature yesterday: 73 °F

Past Weeks' High & Low Weather Summary

 TemperatureHumidityPressure
High88 °F (Nov 22, 3:00 PM)94% (Nov 22, 1:30 AM)30.27 "Hg (Nov 22, 1:30 AM)
Low45 °F (Nov 8, 5:00 AM)10% (Nov 9, 2:00 PM)29.86 "Hg (Nov 22, 2:00 PM)
Average66 °F47%30.08 "Hg
* Reported Nov 8 4:00 AM — Nov 23 4:00 AM, Kuwait City, Weather by CustomWeather, © 2014

Note: Actual official high and low records may vary slightly from our data, if they occured in-between our weather recording intervals... More about our weather records

Advertising

Kuwait City weather history for previous 24 hours

 ConditionsComfort  
Time TempWeatherWind HumidityBarometerVisibility
4:00 AM
Nov 23
70 °FPassing clouds.12 mph60%29.92 "HgN/A
3:00 AM70 °FPassing clouds.14 mph60%29.92 "HgN/A
2:00 AM70 °FClear.13 mph60%29.92 "Hg10 mi
1:00 AM70 °FClear.9 mph60%29.92 "Hg10 mi
12:00 AM66 °FClear.3 mph73%29.92 "Hg10 mi
11:00 PM
Nov 22
66 °FClear.3 mph73%29.92 "Hg10 mi
10:00 PM68 °FClear.5 mph73%29.92 "Hg5 mi
9:00 PM68 °FClear.5 mph73%29.92 "Hg5 mi
7:00 PM73 °FClear.3 mph74%29.89 "Hg5 mi
6:00 PM77 °FClear.No wind61%29.89 "Hg5 mi
5:00 PM81 °FClear.3 mph54%29.86 "Hg4 mi
4:00 PM86 °FClear.No wind31%29.86 "Hg5 mi
3:00 PM88 °FClear.7 mph29%29.86 "Hg5 mi
2:00 PM86 °FClear.8 mph31%29.86 "Hg5 mi
12:30 PM84 °FSunny.13 mph33%29.89 "Hg10 mi
12:00 PM84 °FSunny.14 mph35%29.92 "Hg10 mi
10:00 AM79 °FSunny.22 mph42%29.98 "Hg10 mi
9:00 AM75 °FSunny.17 mph57%29.98 "Hg10 mi
8:00 AM72 °FSunny.13 mph73%29.98 "Hg10 mi
7:00 AM68 °FClear.8 mph78%29.98 "Hg5 mi
6:00 AM68 °FClear.5 mph83%29.98 "Hg4 mi
5:00 AM68 °FThundershowers. Passing clouds.8 mph83%29.98 "Hg4 mi
Weather by CustomWeather, © 2014

See weather overviewHow to use our weather pages